Stations météo

Publicité
Köln-Bonn, Allemagne (10513): Température de l'air & dewpoint: 06.12.2018 01:00:00 - 12.12.2018 01:00:00 (CET)Köln-Bonn, Allemagne (10513): Température de l'air 5cm & Température de l'air -5cm: 06.12.2018 01:00:00 - 12.12.2018 01:00:00 (CET)Köln-Bonn, Allemagne (10513): Température de l'air -20cm & Température de l'air -100cm: 06.12.2018 01:00:00 - 12.12.2018 01:00:00 (CET)Köln-Bonn, Allemagne (10513): Vitesse du vent & gusts: 06.12.2018 01:00:00 - 12.12.2018 01:00:00 (CET)Köln-Bonn, Allemagne (10513): Direction du vent: 06.12.2018 01:00:00 - 12.12.2018 01:00:00 (CET)Köln-Bonn, Allemagne (10513): reduced air pressure: 06.12.2018 01:00:00 - 12.12.2018 01:00:00 (CET)Köln-Bonn, Allemagne (10513): visibility: 06.12.2018 01:00:00 - 12.12.2018 01:00:00 (CET)Köln-Bonn, Allemagne (10513): Ensoleillement: 06.12.2018 01:00:00 - 12.12.2018 01:00:00 (CET)Köln-Bonn, Allemagne (10513): Quantités de précipitations: 06.12.2018 01:00:00 - 12.12.2018 01:00:00 (CET)
Date & Time tt [°C] td [°C] tt 5cm [°C] tt -5cm [°C] tt -20cm [°C] tt -100cm [°C] ff [km/h] ff [knt] fx [km/h] fx [knt] dd ppp [hPa] vv [km] sd [min] rr [mm]
12.12.2018 01:00:00 1,6 1,4 0,6 2,6 5,1 9,2 2 1 5 3 - 1025,2 10 0 0,0
12.12.2018 00:00:00 1,5 1,2 0,5 2,3 5,2 9,2 4 2 5 3 - 1025,1 10 0 0,0
11.12.2018 23:00:00 1,5 1,2 -1,1 2,7 5,3 9,2 2 1 9 5 N 1025,0 10 0 0,0
11.12.2018 22:00:00 2,2 1,6 1,1 3,1 5,5 9,2 2 1 13 7 - 1024,9 10 0 0,0
11.12.2018 21:00:00 1,9 1,5 0,9 3,1 5,6 9,2 5 3 8 4 E 1024,9 10 0 0,0
11.12.2018 20:00:00 2,5 1,9 0,7 3,5 5,8 9,3 2 1 11 6 - 1024,8 10 0 0,0
11.12.2018 19:00:00 3,3 2,3 1,6 4,0 5,9 9,3 5 3 15 8 NNW 1024,5 10 0 0,0
11.12.2018 18:00:00 3,9 2,7 2,3 4,4 6,0 9,3 5 3 16 9 NW 1024,1 10 0 0,0
11.12.2018 17:00:00 3,5 2,7 2,6 4,5 6,1 9,3 2 1 13 7 WNW 1024,1 25 0 0,0
11.12.2018 16:00:00 4,2 2,5 2,5 5,3 6,1 9,3 8 4 21 11 WNW 1023,9 25 0 0,2
11.12.2018 15:00:00 5,2 3,1 4,5 5,7 6,0 9,3 11 6 44 24 WNW 1024,0 15 2 0,7
11.12.2018 14:00:00 5,7 2,4 5,8 6,0 5,8 9,3 17 9 30 16 NW 1024,0 25 23 0,0
11.12.2018 13:00:00 5,6 2,7 5,9 5,8 5,6 9,3 21 11 24 13 WNW 1024,1 10 9 0,0
11.12.2018 12:00:00 5,2 3,1 5,8 5,2 5,5 9,4 7 4 24 13 W 1024,5 15 9 0,5
11.12.2018 11:00:00 4,8 2,4 4,9 4,6 5,4 9,4 15 8 21 11 W 1024,4 10 7 0,1
11.12.2018 10:00:00 4,1 2,0 3,6 4,2 5,4 9,4 13 7 18 10 W 1024,3 10 0 0,0
11.12.2018 09:00:00 3,8 2,1 2,9 3,8 5,4 9,4 10 5 16 9 WNW 1024,0 20 0 0,0
11.12.2018 08:00:00 3,4 2,4 2,6 3,8 5,5 9,4 4 2 18 10 - 1023,9 10 0 0,4
11.12.2018 07:00:00 3,8 1,9 2,8 3,7 5,5 9,4 11 6 22 12 WNW 1023,8 30 0 0,0
11.12.2018 06:00:00 3,6 1,7 2,5 3,7 5,6 9,4 11 6 18 10 WNW 1023,8 10 0 0,0
11.12.2018 05:00:00 3,6 2,0 2,8 3,6 5,6 9,4 11 6 20 11 NW 1023,6 10 0 0,0
11.12.2018 04:00:00 4,2 2,0 2,9 3,8 5,7 9,4 16 9 18 10 WNW 1023,7 10 0 0,0
11.12.2018 03:00:00 4,3 2,0 3,1 4,1 5,7 9,4 15 8 21 11 WNW 1023,9 10 0 0,0
11.12.2018 02:00:00 4,0 2,3 2,8 4,0 5,7 9,4 11 6 24 13 WNW 1023,9 30 0 0,3
11.12.2018 01:00:00 4,5 1,8 3,7 4,0 5,7 9,5 15 8 26 14 W 1024,0 35 0 0,0
11.12.2018 00:00:00 4,2 1,8 3,2 3,9 5,8 9,5 13 7 31 17 WNW 1023,8 35 0 0,1
10.12.2018 23:00:00 4,1 1,9 3,4 3,8 5,8 9,5 18 10 29 16 W 1023,9 40 0 0,0
10.12.2018 22:00:00 4,2 1,9 3,6 3,5 6,0 9,5 21 11 30 16 WNW 1023,8 10 0 0,0
10.12.2018 21:00:00 3,4 1,8 2,2 3,3 6,1 9,5 15 8 23 13 W 1023,6 40 0 0,0
10.12.2018 20:00:00 4,3 1,9 2,7 3,7 6,3 9,5 21 11 35 19 WNW 1023,6 10 0 0,0
10.12.2018 19:00:00 4,6 1,7 3,1 4,1 6,5 9,5 17 9 36 20 W 1023,2 45 0 0,0
10.12.2018 18:00:00 4,6 2,5 3,3 4,6 6,6 9,5 22 12 29 15 W 1022,7 10 0 0,0
10.12.2018 17:00:00 4,9 2,7 3,9 5,3 6,6 9,5 14 8 34 18 W 1022,5 22 0 0,0
10.12.2018 16:00:00 5,7 2,9 5,2 5,7 6,6 9,5 24 13 35 19 WNW 1021,9 10 0 0,0
10.12.2018 15:00:00 5,3 3,2 4,7 5,7 6,6 9,5 22 12 41 22 NW 1021,7 10 0 0,2
10.12.2018 14:00:00 5,5 3,4 5,1 5,9 6,5 9,5 21 11 40 22 WNW 1021,8 20 0 0,0
10.12.2018 13:00:00 5,4 3,2 5,2 5,9 6,5 9,5 24 13 40 22 WNW 1021,9 10 4 0,0
10.12.2018 12:00:00 5,6 3,3 5,9 5,6 6,4 9,5 16 9 28 15 W 1022,1 20 1 0,1
10.12.2018 11:00:00 5,0 2,7 4,3 5,2 6,4 9,5 18 10 34 18 W 1022,5 20 0 0,0
10.12.2018 10:00:00 4,8 2,4 4,6 4,5 6,5 9,5 22 12 30 16 W 1021,9 10 4 0,0
10.12.2018 09:00:00 4,6 2,4 3,9 4,4 6,6 9,5 18 10 29 16 W 1021,3 10 0 0,0
10.12.2018 08:00:00 4,9 2,5 4,2 4,8 6,7 9,5 18 10 28 15 W 1020,9 40 0 0,0
10.12.2018 07:00:00 4,9 2,8 4,0 4,9 6,8 9,5 22 12 30 16 W 1020,1 10 0 0,0
10.12.2018 06:00:00 4,9 2,4 4,0 4,7 6,9 9,5 18 10 32 17 W 1019,3 10 0 0,0
10.12.2018 05:00:00 5,1 2,7 4,1 5,1 7,0 9,5 26 14 37 20 WNW 1019,1 10 0 0,0
10.12.2018 04:00:00 5,4 2,9 4,3 5,3 7,1 9,5 20 11 40 21 W 1018,6 30 0 0,0
10.12.2018 03:00:00 5,8 3,0 4,6 5,6 7,2 9,5 24 13 40 22 WNW 1018,2 10 0 0,1
10.12.2018 02:00:00 6,0 3,6 4,9 5,8 7,2 9,5 18 10 34 18 W 1017,1 30 0 0,0
10.12.2018 01:00:00 6,0 4,0 5,0 5,8 7,3 9,5 16 9 36 20 WNW 1016,4 35 0 0,1
10.12.2018 00:00:00 6,0 4,1 5,0 5,9 7,4 9,5 21 11 37 20 W 1015,6 35 0 0,0
09.12.2018 23:00:00 6,3 4,6 5,4 6,0 7,5 9,6 24 13 47 25 W 1014,6 10 0 0,2
09.12.2018 22:00:00 6,8 3,9 5,3 6,2 7,6 9,6 21 11 37 20 WNW 1013,4 35 0 0,0
09.12.2018 21:00:00 7,0 4,5 5,9 6,5 7,7 9,6 34 18 42 23 WNW 1012,5 10 0 0,2
09.12.2018 20:00:00 7,2 4,8 6,0 6,7 7,7 9,6 31 17 50 27 WNW 1011,0 10 0 0,0
09.12.2018 19:00:00 7,7 4,7 6,5 6,7 7,8 9,6 31 17 50 27 WNW 1009,3 10 0 0,0
09.12.2018 18:00:00 7,9 5,1 6,7 7,0 7,8 9,6 23 12 42 23 WNW 1007,6 45 0 0,0
09.12.2018 17:00:00 7,7 5,7 6,9 7,2 7,9 9,6 15 8 35 19 W 1006,2 45 0 0,0
09.12.2018 16:00:00 7,5 5,9 6,8 7,3 7,9 9,6 15 8 28 15 WNW 1004,8 55 0 0,3
09.12.2018 15:00:00 6,6 5,6 6,0 7,5 7,9 9,6 18 10 40 22 WNW 1003,2 18 0 5,3
09.12.2018 14:00:00 7,9 5,1 8,0 8,0 7,8 9,6 28 15 37 20 WSW 1001,8 10 1 0,0
09.12.2018 13:00:00 8,4 5,1 8,4 7,8 7,8 9,6 26 14 41 22 W 1001,2 10 0 0,0
09.12.2018 12:00:00 8,8 5,6 8,4 7,6 7,7 9,6 34 18 48 26 W 1000,8 10 0 0,0
09.12.2018 11:00:00 8,6 5,2 8,2 7,3 7,7 9,6 34 18 49 27 W 1000,6 10 0 0,0
09.12.2018 10:00:00 8,9 5,0 7,9 7,2 7,7 9,7 27 15 47 25 W 1000,1 40 0 0,0
09.12.2018 09:00:00 8,6 4,7 7,2 7,1 7,7 9,7 27 15 49 26 W 999,6 40 0 0,0
09.12.2018 08:00:00 7,4 6,0 6,5 7,1 7,8 9,7 11 6 41 22 NW 998,7 10 0 0,2
09.12.2018 07:00:00 8,0 6,0 6,7 7,0 7,8 9,7 35 19 50 27 W 997,7 10 0 0,9
09.12.2018 06:00:00 7,0 5,9 6,4 7,1 7,9 9,7 13 7 39 21 W 997,4 30 0 3,5
09.12.2018 05:00:00 8,2 5,8 6,8 7,1 7,9 9,7 25 13 54 29 W 997,3 25 0 0,2
09.12.2018 04:00:00 9,2 4,7 8,1 7,2 8,0 9,7 34 18 57 31 W 996,9 10 0 0,0
09.12.2018 03:00:00 9,4 5,2 8,3 7,6 8,0 9,7 39 21 66 35 W 996,7 10 0 0,0
09.12.2018 02:00:00 8,8 6,9 7,6 7,7 8,0 9,7 28 15 67 36 W 996,3 15 0 3,8
09.12.2018 01:00:00 10,2 6,5 8,6 7,9 7,9 9,7 37 20 59 32 W 995,9 10 0 0,0
09.12.2018 00:00:00 10,6 6,9 8,9 7,8 7,9 9,7 26 14 46 25 WSW 996,4 60 0 0,0
08.12.2018 23:00:00 10,0 7,7 8,5 7,9 7,9 9,7 26 14 43 23 SW 997,0 10 0 1,0
08.12.2018 22:00:00 9,3 7,7 8,2 7,7 7,8 9,7 26 14 40 22 SSW 997,6 10 0 1,2
08.12.2018 21:00:00 9,0 7,1 7,9 7,5 7,8 9,7 21 11 38 21 SSW 999,3 10 0 1,8
08.12.2018 20:00:00 9,2 6,4 7,5 7,5 7,8 9,7 26 14 42 23 SSW 1001,0 10 0 0,1
08.12.2018 19:00:00 9,1 6,3 7,6 7,4 7,7 9,7 23 12 41 22 SW 1002,7 45 0 0,2
08.12.2018 18:00:00 9,5 5,1 7,5 7,3 7,7 9,7 20 11 41 22 SW 1004,0 25 0 0,0
08.12.2018 17:00:00 9,9 4,9 8,9 7,3 7,7 9,7 29 16 40 22 WSW 1004,9 10 0 0,0
08.12.2018 16:00:00 9,2 5,3 7,6 7,4 7,7 9,7 24 13 41 22 WSW 1005,2 10 0 0,0
08.12.2018 15:00:00 9,5 5,0 8,2 7,5 7,6 9,7 28 15 46 25 WSW 1005,4 10 0 0,0
08.12.2018 14:00:00 8,3 5,8 7,2 7,3 7,5 9,7 24 13 44 24 WSW 1005,6 10 0 0,0
08.12.2018 13:00:00 9,1 5,0 8,4 7,1 7,4 9,7 44 24 53 28 WSW 1005,6 10 0 0,1
08.12.2018 12:00:00 7,7 5,2 6,6 6,7 7,4 9,7 21 11 41 22 SW 1005,7 10 0 0,2
08.12.2018 11:00:00 7,1 3,9 6,1 6,6 7,4 9,7 28 15 46 25 SW 1006,1 10 0 0,0
08.12.2018 10:00:00 6,9 3,9 5,8 6,3 7,4 9,7 22 12 48 26 SW 1006,2 10 0 0,1
08.12.2018 09:00:00 6,7 3,4 5,9 6,1 7,5 9,7 23 13 35 19 SW 1006,3 60 0 0,0
08.12.2018 08:00:00 7,0 3,7 5,9 6,2 7,5 9,7 22 12 42 23 SW 1006,8 10 0 0,0
08.12.2018 07:00:00 6,8 4,0 5,5 6,1 7,6 9,7 16 9 36 20 SW 1007,0 10 0 0,2
08.12.2018 06:00:00 7,6 3,1 6,8 6,0 7,6 9,6 26 14 39 21 SW 1007,0 60 0 0,0
08.12.2018 05:00:00 7,2 2,6 6,3 5,8 7,7 9,6 18 10 37 20 SW 1007,4 10 0 0,0
08.12.2018 04:00:00 6,5 2,3 4,9 5,7 7,9 9,6 21 11 36 19 SW 1007,9 60 0 0,0
08.12.2018 03:00:00 6,9 2,3 4,7 6,0 8,1 9,6 31 17 48 26 WSW 1008,0 10 0 0,0
08.12.2018 02:00:00 6,5 3,0 4,9 5,8 8,3 9,6 18 10 34 18 WSW 1007,7 10 0 0,0
08.12.2018 01:00:00 6,5 2,7 4,2 6,3 8,5 9,6 13 7 42 23 SW 1007,6 40 0 0,0
08.12.2018 00:00:00 7,4 4,0 6,1 7,0 8,7 9,6 26 14 41 22 WSW 1007,5 10 0 0,0
07.12.2018 23:00:00 7,0 4,3 5,8 7,0 8,9 9,6 26 14 36 20 WSW 1006,5 10 0 0,0
07.12.2018 22:00:00 6,7 4,9 5,6 7,6 9,1 9,6 21 11 42 23 WSW 1005,6 10 0 0,1
07.12.2018 21:00:00 6,8 4,6 5,8 8,1 9,2 9,6 26 14 68 37 W 1004,3 10 0 1,1
07.12.2018 20:00:00 8,4 6,6 7,4 8,8 9,3 9,6 34 18 58 31 WSW 1001,7 10 0 0,8
07.12.2018 19:00:00 10,4 7,9 8,9 9,2 9,3 9,6 22 12 36 19 SSW 999,7 10 0 0,5
07.12.2018 18:00:00 10,6 7,5 8,9 9,3 9,4 9,5 26 14 45 24 S 1000,0 10 0 0,7
07.12.2018 17:00:00 10,8 7,5 9,1 9,6 9,4 9,5 26 14 44 24 S 1001,8 10 0 0,1
07.12.2018 16:00:00 11,9 7,4 11,1 10,0 9,4 9,5 24 13 54 29 SSW 1002,7 10 0 0,0
07.12.2018 15:00:00 12,4 7,8 11,8 10,4 9,3 9,5 34 18 54 29 SSW 1003,7 70 0 0,0
07.12.2018 14:00:00 12,5 8,5 12,0 10,4 9,2 9,5 16 9 39 21 SSW 1005,0 10 0 0,0
07.12.2018 13:00:00 12,4 8,4 11,9 10,1 9,2 9,5 16 9 35 19 SSW 1006,9 10 0 0,0
07.12.2018 12:00:00 11,8 8,7 10,6 9,8 9,1 9,5 16 9 24 13 S 1008,5 10 0 0,0
07.12.2018 11:00:00 11,8 9,0 10,6 9,7 9,1 9,5 14 8 22 12 S 1009,8 60 0 0,0
07.12.2018 10:00:00 11,3 9,2 10,3 9,5 9,0 9,5 16 9 21 11 S 1010,7 10 0 0,0
07.12.2018 09:00:00 10,7 9,6 10,0 9,4 9,0 9,5 14 7 21 11 S 1011,4 45 0 0,0
07.12.2018 08:00:00 10,3 9,8 9,7 9,4 9,0 9,5 15 8 24 13 SSE 1011,8 10 0 0,3
07.12.2018 07:00:00 10,2 9,7 9,7 9,4 9,0 9,5 15 8 21 11 SSE 1012,8 10 0 0,5
07.12.2018 06:00:00 11,1 9,0 9,8 9,5 8,9 9,5 14 8 23 12 S 1013,3 22 0 0,2
07.12.2018 05:00:00 12,2 8,6 10,5 9,5 8,9 9,5 13 7 22 12 S 1013,9 10 0 0,1
07.12.2018 04:00:00 12,2 9,3 10,4 9,5 8,9 9,5 11 6 21 11 SSW 1014,4 35 0 0,1
07.12.2018 03:00:00 12,0 9,7 10,5 9,5 8,8 9,5 11 6 18 10 S 1015,1 40 0 0,1
07.12.2018 02:00:00 11,2 10,3 10,3 9,5 8,8 9,5 11 6 23 13 S 1015,8 10 0 0,0
07.12.2018 01:00:00 12,1 9,7 11,1 9,5 8,7 9,5 21 11 29 16 W 1016,7 10 0 0,0
07.12.2018 00:00:00 12,4 9,5 11,5 9,4 8,7 9,5 15 8 16 9 SW 1016,8 10 0 0,0
06.12.2018 23:00:00 12,2 9,4 11,2 9,3 8,6 9,5 11 6 13 7 SSW 1016,8 10 0 0,0
06.12.2018 22:00:00 11,8 9,2 10,6 9,3 8,6 9,5 9 5 13 7 S 1017,1 10 0 0,0
06.12.2018 21:00:00 11,7 9,1 10,5 9,2 8,6 9,5 10 5 14 8 S 1017,2 50 0 0,0
06.12.2018 20:00:00 11,6 8,9 10,4 9,2 8,5 9,5 11 6 16 9 S 1017,4 50 0 0,0
06.12.2018 19:00:00 11,6 8,7 10,4 9,2 8,5 9,5 15 8 16 9 S 1017,6 10 0 0,0
06.12.2018 18:00:00 11,6 8,9 10,3 9,3 8,4 9,5 13 7 16 9 S 1017,8 10 0 0,0
06.12.2018 17:00:00 11,7 9,2 10,4 9,4 8,3 9,5 11 6 21 11 S 1017,8 10 0 0,0
06.12.2018 16:00:00 12,1 9,5 10,8 9,7 8,2 9,5 6 4 13 7 S 1017,7 40 0 0,0
06.12.2018 15:00:00 12,3 9,7 11,2 9,7 8,0 9,5 12 6 22 12 SW 1017,7 40 0 0,0
06.12.2018 14:00:00 12,4 9,7 11,3 9,7 7,8 9,5 16 9 25 14 WSW 1017,8 10 0 0,0
06.12.2018 13:00:00 11,5 10,0 11,1 9,2 7,5 9,5 9 5 16 9 S 1017,8 10 0 0,0
06.12.2018 12:00:00 10,9 9,9 10,5 9,0 7,3 9,5 8 4 16 9 S 1017,7 10 0 0,0
06.12.2018 11:00:00 9,9 9,2 9,8 8,0 7,2 9,6 13 7 18 10 SSE 1017,2 20 0 0,2
06.12.2018 10:00:00 8,8 8,4 8,4 7,5 7,1 9,6 10 6 15 8 S 1017,3 3,0 0 0,2
06.12.2018 09:00:00 8,3 7,9 7,9 7,1 7,0 9,6 13 7 21 11 SSE 1017,0 6 0 0,2
06.12.2018 08:00:00 8,0 7,5 7,6 6,9 6,9 9,6 13 7 21 11 SSE 1016,1 3,0 0 0,1
06.12.2018 07:00:00 7,8 7,0 7,3 6,8 6,8 9,6 15 8 22 12 SSE 1015,6 10 0 0,0
06.12.2018 06:00:00 7,7 6,6 7,1 6,6 6,7 9,6 15 8 16 9 SE 1015,4 10 0 0,0
06.12.2018 05:00:00 7,6 6,4 6,9 6,5 6,7 9,6 11 6 18 10 SE 1015,1 10 0 0,0
06.12.2018 04:00:00 7,2 6,2 6,7 6,3 6,6 9,6 15 8 22 12 SE 1015,1 10 0 0,0
06.12.2018 03:00:00 6,8 6,0 6,2 6,1 6,6 9,6 15 8 22 12 SE 1015,4 10 0 0,0
06.12.2018 02:00:00 6,7 5,7 6,1 6,0 6,5 9,7 15 8 29 15 SE 1015,6 10 0 0,0
06.12.2018 01:00:00 6,4 5,5 5,8 5,9 6,5 9,7 18 10 31 17 ESE 1015,5 10 0 0,9

tt = Température de l'air
td = dewpoint
tt 5cm = Température de l'air 5cm
tt -5cm = Température de l'air -5cm
tt -20cm = Température de l'air -20cm
tt -100cm = Température de l'air -100cm
ff = Vitesse du vent
fx = gusts
dd = Direction du vent
ppp = reduced air pressure
vv = visibility
sd = Ensoleillement
rr = Quantités de précipitations

stations d'obs. à proximité